Regional Weather Roundup
Issued by NWS Upton, NY

Current Version | Previous Version | Graphics & Text | Print | Product List | Glossary Off
Versions: 1 2 3 4 5 6 7 8 9 10 11 12 13 14 15 16 17 18 19 20 21 22 23 24 25 26 27 28 29 30 31 32 33 34 35 36 37 38 39 40 41 42 43 44 45 46 47 48 49 50

000
ASUS41 KOKX 171708
RWROKX

REGIONAL WEATHER ROUNDUP
NATIONAL WEATHER SERVICE NEW YORK NY
1200 PM EST FRI NOV 17 2017

NOTE: "FAIR" INDICATES FEW OR NO CLOUDS BELOW 12,000 FEET WITH NO
SIGNIFICANT WEATHER AND/OR OBSTRUCTIONS TO VISIBILITY.

NYZ071-072-176-178-NJZ106-104-171800-
NEW YORK CITY METRO AREA

CITY           SKY/WX    TMP DP  RH WIND       PRES   REMARKS
Central Park   SUNNY     45  23  42 MISG      30.07F
Bronx Bot Gard   N/A     45  23  42 N18       30.06R
LaGuardia APRT MOSUNNY   45  25  45 NW21G28   30.05F
Kennedy INTL   MOSUNNY   46  24  42 W21G29    30.06F
Breezy Point     N/A     43 N/A N/A NW15G22     N/A
Newark/Liberty MOSUNNY   48  22  35 W14       30.07F
Teterboro      SUNNY     46  24  42 NW18G24   30.05F
$$

NYZ177-179-078>081-171800-
LONG ISLAND NEW YORK

CITY           SKY/WX    TMP DP  RH WIND       PRES   REMARKS
Jones Beach      N/A     43 N/A N/A NW20G25     N/A
Matinecock PT    N/A     45 N/A N/A W24G31      N/A
Farmingdale    SUNNY     46  25  43 NW12G23   30.03F
MacArthur/ISP  MOSUNNY   48  27  44 NW14G25   30.00F
Shirley        SUNNY     47  27  45 NW17G28   30.00F
Mt Sinai Harb    N/A    N/A N/A N/A NW12G18     N/A
Westhampton    MOSUNNY   46  26  45 NW20G26   29.99F
East Hampton   FAIR      44  27  50 NW14G22   29.96F
Southold       NOT AVBL
Montauk          N/A     45  27  49 NW14G26   29.96F
$$

NYZ052-065-067-171800-
HUDSON VALLEY

CITY           SKY/WX    TMP DP  RH WIND       PRES   REMARKS
White Plains   SUNNY     44  24  45 NW17G24   30.00F
Larchmont Harb   N/A     43 N/A N/A W14         N/A
Croton On Huds   N/A     45 N/A N/A W17G23      N/A
Newburgh       SUNNY     45  27  49 NW14G23   30.04F
Montgomery     SUNNY     44  20  38 NW17G26   30.04F
Poughkeepsie   SUNNY     46  19  34 NW16      30.01F
Albany         MOSUNNY   38  20  48 NW17G23   30.07F WCI  28
$$

NJZ001-105-106-008-010-013-015-019>022-104-171800-
NEW JERSEY

CITY           SKY/WX    TMP DP  RH WIND       PRES   REMARKS
Newark/Liberty MOSUNNY   48  22  35 W14       30.07F
Teterboro      SUNNY     46  24  42 NW18G24   30.05F
Caldwell       SUNNY     44  22  41 NW15G26   30.07F
Somerville     SUNNY     46  21  37 NW10G26   30.09S
Linden         FAIR      46  21  36 NW13G21   30.08S
Perth Amboy      N/A     43 N/A N/A W21G26      N/A
Sussex         LGT RAIN  42  23  46 W10G18    30.08F
Andover          N/A     43  20  39 N8G20     30.08F
Trenton        SUNNY     46  23  40 NW15G23   30.10F
Millville      SUNNY     50  29  44 NW16G25   30.13F
Atlantic City  SUNNY     50  26  39 NW20G29   30.11F
Wrightstown    SUNNY     47  25  42 NW13G24   30.08F
Toms River     SUNNY     47  25  42 W16G23    30.10F
Belmar         SUNNY     46  23  40 W17G24    30.08F
$$

PAZ047>061-062-071-171800-
EASTERN PENNSYLVANIA

CITY           SKY/WX    TMP DP  RH WIND       PRES   REMARKS
Philadelphia   MOSUNNY   48  22  35 NW17G25   30.14F
Allentown      SUNNY     46  23  40 NW13      30.12F
Scranton       SUNNY     40  20  44 NW14      30.13F WCI  32
$$

CTZ002-004>006-009-010-012-RIZ004-006-007-MAZ004-011-015-171800-
SOUTHERN NEW ENGLAND
 IN CT

CITY           SKY/WX    TMP DP  RH WIND       PRES   REMARKS
Bradley INTL   MOSUNNY   42  22  44 N14G26    29.97F
Hartford       SUNNY     43  24  47 NW13G22   29.98F
Danbury        MOSUNNY   45  20  36 NW16G26   30.00F
Wtrbury/Oxford MOSUNNY   40  24  53 NW10      29.99S WCI  33
Norwalk Harbor   N/A     43 N/A N/A W17G35      N/A
Bridgeport     SUNNY     48  23  37 NW14      29.99F
Meriden        SUNNY     44  24  45 NW13G24   29.98F
New Haven      SUNNY     46  23  40 NW12G23   29.98F
Chester        FAIR      43  23  45 N17G25    29.95F
Groton         SUNNY     45  24  43 NW17G28   29.94F
Wilimantic     SUNNY     43  24  47 W14G26    29.95F

 IN RI

CITY           SKY/WX    TMP DP  RH WIND       PRES   REMARKS
Providence     MOSUNNY   46  26  45 NW21G28   29.90F
Block Island   SUNNY     43  26  51 NW15G23   29.93F
Westerly       SUNNY     45  25  45 NW13G23   29.93F
 IN MA

CITY           SKY/WX    TMP DP  RH WIND       PRES   REMARKS
Boston         MOSUNNY   42  23  46 NW21G31   29.88S
Worcester      SUNNY     38  20  48 NW15G32   29.87F WCI  29
Westfield      SUNNY     41  23  48 NW21G30   29.96F
Provincetown   SUNNY     43  30  60 NW29G37   29.85S
Nantucket      MOSUNNY   45  31  58 NW21G28   29.85F
$$

ANZ330-335-338-340-345-350-353-355-171800-
COASTAL MARINE OBSERVATIONS


STATION/POSITION TIME  SKY/WX   TEMP    WIND        PRES    VSBY  WAVE
                                AIR SEA DIR/SP/G                  HT/PER
                 (UTC)          (F)     (DEG/KT/KT) (MB)    (MI)  (FT/S)
NY HARB ENTRANCE 1550            44 57  300/ 23/ 27 1017.3          4/ 5
20 S FIRE ISLAND 1550            44 58  310/ 21/ 25 1017.4          6/ 6
GREAT SOUTH BAY  1630            44 46  290/ 16/ 19   N/A
HUDSON CANYON    1550            47 60  310/ 25/ 35 1016.7          9/ 8
KINGS POINT      1624            43 51  340/ 16/ 21 1018.4
EXECUTION ROCKS  1630            46     310/ 17/ 27   N/A
WESTERN LI SOUND 1549            45     300/ 19/ 27   N/A           2/ 3
CENTRAL LI SOUND NOT AVBL
ROBBINS REEF     1642            43     300/ 16/ 22 1018.8
$$


>>>>>>>>>>>>>>>>>>>>>>>>>>>> KEY <<<<<<<<<<<<<<<<<<<<<<<<<<<
>                                                          <
>     SKY/WX - Sky Condition/Present Weather               <
>     TMP    - Temperature in Fahrenheit                   <
>     DP     - Dew Point in Fahrenheit                     <
>     RH     - Relative Humidity in Percent                <
>     WIND   - Direction (from) and Speed in MPH           <
>     PRES   - Mean Sea Level Pressure (inches of Hg)      <
>     WCI    - Wind Chill Index                            <
>     VSB    - VISIBILITY IN MILES                         <
>     HX     - HEAT INDEX                                  <
>     TC     - TEMPERATURE IN CELSIUS                      <
>     VRB    - VARIABLE WIND DIRECTION                     <
>                                                          <
>>>>>>>>>>>>>>>>>>>>>>>>>>>> KEY <<<<<<<<<<<<<<<<<<<<<<<<<<<



USA.gov is the U.S. government's official web portal to all federal, state and local government web resources and services.